Fulton, NY

9:32 AM EST on February 13, 2016 (GMT -0500)
Oswego County

Weather History for KFZY - January, 2014

Change the Weather History Date:

Saturday, January 18, 2014

  Actual Average (KSYR) Record (KSYR)
Temperature  
Mean Temperature 26 °F 23 °F  
Max Temperature 30 °F 31 °F 61 °F (1973)
Min Temperature 19 °F 15 °F -15 °F (1945)
Degree Days  
Heating Degree Days 40 42  
Month to date heating degree days 743  
Since 1 July heating degree days 3196  
Cooling Degree Days 0 0  
Month to date cooling degree days 0  
Year to date cooling degree days 0  
Moisture  
Dew Point 21 °F    
Average Humidity 80    
Maximum Humidity 88    
Minimum Humidity 71    
Precipitation  
Precipitation 0.16 in 0.08 in 0.76 in (1920)
Month to date precipitation 1.53  
Year to date precipitation 1.53  
Snow  
Snow 0.00 in 1.10 in 19.80 in (1992)
Month to date snowfall 19.5  
Since 1 July snowfall 62.1  
Snow Depth -    
Sea Level Pressure  
Sea Level Pressure 29.82 in    
Wind  
Wind Speed 7 mph (WSW)    
Max Wind Speed 17 mph    
Max Gust Speed 23 mph    
Visibility 3 miles    
Events Fog , Snow    
T = Trace of Precipitation, MM = Missing Value Source: NWS Daily Summary

Daily Weather History Graph

Daily Weather History Graph

Search for Another Location

Airport or City:

Trip Planner

Search our weather history database for the weather conditions in past years. The results will help you decide how hot, cold, wet, or windy it might be!

Date:

Astronomy

Jan. 18, 2014 Rise Set
Actual Time 7:33 AM EST 4:59 PM EST
Civil Twilight 7:01 AM EST 5:30 PM EST
Nautical Twilight 6:26 AM EST 6:05 PM EST
Astronomical Twilight 5:52 AM EST 6:39 PM EST
Moon 7:44 PM EST (1/18) 8:26 AM EST (1/18)
Length of Visible Light 10h 28m
Length of Day
9h 25m
Waning Gibbous, 94% of the Moon is Illuminated
Jan 18
Waning Gibbous
Jan 24
Last Quarter
Jan 30
New
Feb 6
First Quarter
Feb 14
Full

Hourly Weather History & Observations

Time (EST) Temp. Windchill Dew Point Humidity Pressure Visibility Wind Dir Wind Speed Gust Speed Precip Events Conditions
12:54 AM 28.0 °F - 21.9 °F 78% 29.82 in 10.0 mi Calm Calm - N/A   Clear
1:54 AM 28.9 °F 23.9 °F 23.0 °F 78% 29.82 in 10.0 mi ESE 4.6 mph - N/A   Clear
2:54 AM 30.0 °F 25.2 °F 24.1 °F 79% 29.83 in 10.0 mi SE 4.6 mph - N/A   Overcast
3:44 AM 30.2 °F 26.7 °F 24.8 °F 80% 29.80 in 2.0 mi SE 3.5 mph - 0.00 in Snow Light Snow
3:51 AM 30.2 °F - 24.8 °F 80% 29.80 in 1.2 mi Calm Calm - 0.01 in Snow Light Snow
3:54 AM 30.0 °F - 25.0 °F 82% 29.82 in 1.2 mi Calm Calm - 0.01 in Snow Light Snow
4:07 AM 30.2 °F - 24.8 °F 80% 29.79 in 2.0 mi Calm Calm - 0.00 in Snow Light Snow
4:23 AM 30.2 °F - 26.6 °F 86% 29.78 in 2.0 mi Calm Calm - 0.00 in Snow Light Snow
4:35 AM 30.2 °F - 26.6 °F 86% 29.78 in 1.8 mi Calm Calm - 0.00 in Snow Light Snow
4:51 AM 30.2 °F - 26.6 °F 86% 29.78 in 1.0 mi Calm Calm - 0.01 in Snow Light Snow
4:54 AM 30.0 °F - 27.0 °F 88% 29.79 in 1.0 mi Calm Calm - 0.01 in Snow Light Snow
4:57 AM 30.2 °F - 26.6 °F 86% 29.78 in 0.8 mi Calm Calm - 0.00 in Snow Light Snow
5:06 AM 30.2 °F - 26.6 °F 86% 29.77 in 0.5 mi Calm Calm - 0.01 in Fog , Snow Snow
5:54 AM 30.0 °F 26.5 °F 27.0 °F 88% 29.79 in 0.8 mi West 3.5 mph - 0.06 in Snow Light Snow
6:10 AM 30.2 °F 24.3 °F 26.6 °F 86% 29.77 in 0.8 mi WNW 5.8 mph - 0.01 in Snow Light Snow
6:17 AM 30.2 °F 23.4 °F 26.6 °F 86% 29.77 in 0.8 mi NW 6.9 mph - 0.01 in Snow Light Snow
6:54 AM 28.0 °F 18.1 °F 25.0 °F 88% 29.79 in 0.8 mi West 11.5 mph - 0.03 in Snow Light Snow
7:54 AM 26.1 °F 15.6 °F 21.9 °F 84% 29.81 in 0.2 mi West 11.5 mph - 0.02 in Fog , Snow Heavy Snow
8:54 AM 25.0 °F 14.2 °F 21.0 °F 85% 29.83 in 0.5 mi West 11.5 mph - 0.02 in Fog , Snow Snow
9:54 AM 25.0 °F 15.5 °F 21.0 °F 85% 29.85 in 0.5 mi WSW 9.2 mph - 0.01 in Fog , Snow Snow
10:24 AM 24.8 °F 15.3 °F 21.2 °F 86% 29.83 in 0.8 mi West 9.2 mph - 0.00 in Snow Light Snow
10:37 AM 24.8 °F 15.3 °F 21.2 °F 86% 29.83 in 0.8 mi WSW 9.2 mph - 0.00 in Snow Light Snow
10:54 AM 24.1 °F 12.5 °F 19.9 °F 84% 29.84 in 0.8 mi WSW 12.7 mph - 0.00 in Snow Light Snow
11:00 AM 24.8 °F 13.4 °F 19.4 °F 80% 29.82 in 1.2 mi West 12.7 mph - 0.00 in Snow Light Snow
11:17 AM 24.8 °F 12.4 °F 19.4 °F 80% 29.82 in 3.0 mi West 15.0 mph - 0.00 in Snow Light Snow
11:30 AM 24.8 °F 12.9 °F 19.4 °F 80% 29.81 in 1.8 mi West 13.8 mph - 0.00 in Snow Light Snow
11:41 AM 24.8 °F 12.4 °F 19.4 °F 80% 29.81 in 1.2 mi West 15.0 mph - 0.00 in Snow Light Snow
11:54 AM 24.1 °F 11.0 °F 19.0 °F 81% 29.83 in 2.0 mi West 16.1 mph 23.0 mph 0.00 in Snow Light Snow
12:06 PM 24.8 °F 12.9 °F 17.6 °F 74% 29.81 in 3.0 mi West 13.8 mph - 0.00 in Snow Light Snow
12:16 PM 24.8 °F 14.6 °F 19.4 °F 80% 29.80 in 2.5 mi WSW 10.4 mph - 0.00 in Snow Light Snow
12:33 PM 24.8 °F 13.4 °F 17.6 °F 74% 29.80 in 2.0 mi WSW 12.7 mph - 0.00 in Snow Light Snow
12:45 PM 24.8 °F 14.0 °F 17.6 °F 74% 29.80 in 1.5 mi WSW 11.5 mph - 0.00 in Snow Light Snow
12:54 PM 24.1 °F 13.1 °F 19.0 °F 81% 29.82 in 1.5 mi WSW 11.5 mph 23.0 mph 0.00 in Snow Light Snow
1:10 PM 24.8 °F 12.9 °F 19.4 °F 80% 29.80 in 2.0 mi West 13.8 mph - 0.00 in Snow Light Snow
1:54 PM 24.1 °F 10.6 °F 19.0 °F 81% 29.81 in 2.5 mi WSW 17.3 mph - 0.00 in Snow Light Snow
2:13 PM 24.8 °F 12.9 °F 17.6 °F 74% 29.79 in 2.5 mi West 13.8 mph - 0.00 in Snow Light Snow
2:54 PM 24.1 °F 12.0 °F 18.0 °F 77% 29.81 in 3.0 mi West 13.8 mph - 0.00 in Snow Light Snow
3:01 PM 24.8 °F 12.9 °F 19.4 °F 80% 29.79 in 3.0 mi West 13.8 mph - 0.00 in Snow Light Snow
3:30 PM 24.8 °F 14.6 °F 19.4 °F 80% 29.81 in 2.5 mi WSW 10.4 mph - 0.00 in Snow Light Snow
3:47 PM 24.8 °F 12.9 °F 19.4 °F 80% 29.81 in 4.0 mi WSW 13.8 mph - 0.00 in Snow Light Snow
3:54 PM 24.1 °F 12.0 °F 19.0 °F 81% 29.83 in 5.0 mi WSW 13.8 mph - 0.00 in Snow Light Snow
4:32 PM 24.8 °F 12.4 °F 17.6 °F 74% 29.83 in 3.0 mi WSW 15.0 mph 20.7 mph 0.00 in Snow Light Snow
4:37 PM 24.8 °F 13.4 °F 17.6 °F 74% 29.83 in 1.8 mi WSW 12.7 mph 20.7 mph 0.00 in Snow Light Snow
4:54 PM 24.1 °F 13.7 °F 18.0 °F 77% 29.85 in 1.5 mi WSW 10.4 mph 20.7 mph 0.00 in Snow Light Snow
5:09 PM 24.8 °F 13.4 °F 17.6 °F 74% 29.84 in 2.5 mi West 12.7 mph - 0.00 in Snow Light Snow
5:37 PM 24.8 °F 15.3 °F 17.6 °F 74% 29.84 in 3.0 mi WSW 9.2 mph - 0.00 in Snow Light Snow
5:54 PM 24.1 °F 13.1 °F 17.1 °F 75% 29.86 in 4.0 mi WSW 11.5 mph - 0.00 in Snow Light Snow
6:54 PM 23.0 °F 11.1 °F 17.1 °F 78% 29.87 in 6.0 mi WSW 12.7 mph - 0.00 in Snow Light Snow
7:54 PM 23.0 °F 11.7 °F 16.0 °F 74% 29.87 in 10.0 mi WSW 11.5 mph - 0.00 in   Overcast
8:54 PM 21.9 °F 11.0 °F 15.1 °F 75% 29.87 in 10.0 mi WSW 10.4 mph - N/A   Overcast
9:54 PM 21.9 °F 9.8 °F 14.0 °F 72% 29.87 in 10.0 mi WSW 12.7 mph - N/A   Overcast
10:54 PM 21.0 °F 8.1 °F 12.9 °F 71% 29.87 in 10.0 mi WSW 13.8 mph - N/A   Overcast
11:54 PM 19.9 °F 9.3 °F 12.0 °F 71% 29.86 in 10.0 mi WSW 9.2 mph - N/A   Overcast